This demonstration page uses our WeatherBlox Daily Observations layout. Learn more.

Left ArrowRight Arrow

Hourly Observations for May 29, 2018

Temp ( °F °C ) Dew Point ( °F °C ) Humidity (%) Winds ( mph kmh ) Pressure ( in mb ) Visibility ( mi km ) Precip ( " mm )
12:51 am 00:51 Clear 72 22.2 24 -4.4 17 17 NNW 12 19 29.71 1006 10 16 0.00 0.00
1:51 am 01:51 Clear 71 21.7 24 -4.4 17 17 NW 12 19 29.70 1006 10 16 0.00 0.00
2:51 am 02:51 Clear 69 20.6 25 -3.9 19 19 NW 13 20 29.70 1006 10 16 0.00 0.00
3:51 am 03:51 Clear 68 20 25 -3.9 20 20 NNW 8 13 29.71 1006 10 16 0.00 0.00
4:51 am 04:51 Clear 64 17.8 23 -5 21 21 SE 7 11 29.72 1007 10 16 0.00 0.00
5:51 am 05:51 Sunny 63 17.2 23 -5 22 22 E 3 6 29.74 1007 10 16 0.00 0.00
6:51 am 06:51 Sunny 68 20 23 -5 18 18 SE 6 9 29.75 1008 10 16 0.00 0.00
7:51 am 07:51 Sunny 74 23.3 24 -4.4 15 15 S 5 7 29.76 1008 10 16 0.00 0.00
8:51 am 08:51 Sunny 79 26.1 25 -3.9 14 14 WSW 3 6 29.75 1008 10 16 0.00 0.00
9:51 am 09:51 Sunny 84 28.9 26 -3.3 12 12 VRB 6 9 29.73 1007 10 16 0.00 0.00
10:51 am 10:51 Sunny 88 31.1 27 -2.8 11 11 VRB 3 6 29.72 1006 10 16 0.00 0.00
11:51 am 11:51 Sunny 91 32.8 26 -3.3 9 9 Calm 29.70 1006 10 16 0.00 0.00
12:51 pm 12:51 Sunny 92 33.3 26 -3.3 9 9 SW 9 15 29.67 1005 10 16 0.00 0.00
1:51 pm 13:51 Sunny 93 33.9 25 -3.9 8 8 SSW 5 7 29.65 1004 10 16 0.00 0.00
2:51 pm 14:51 Sunny 96 35.6 24 -4.4 7 7 WNW 12 19 29.62 1003 10 16 0.00 0.00
3:51 pm 15:51 Sunny 97 36.1 20 -6.7 6 6 NNW 9 15 29.60 1002 10 16 0.00 0.00
4:51 pm 16:51 Sunny 96 35.6 18 -7.8 6 6 VRB 7 11 29.59 1002 10 16 0.00 0.00
5:51 pm 17:51 Sunny 96 35.6 19 -7.2 6 6 WNW 10 17 29.58 1002 10 16 0.00 0.00
6:51 pm 18:51 Sunny 92 33.3 19 -7.2 7 7 WNW 13 20 29.58 1002 10 16 0.00 0.00
7:51 pm 19:51 Clear 88 31.1 19 -7.2 8 8 NW 9 15 29.59 1002 10 16 0.00 0.00
8:51 pm 20:51 Clear 87 30.6 20 -6.7 8 8 NW 14 22 29.60 1003 10 16 0.00 0.00
9:51 pm 21:51 Clear 83 28.3 19 -7.2 9 9 NW 8 13 29.62 1003 10 16 0.00 0.00
10:51 pm 22:51 Clear 77 25 18 -7.8 11 11 NW 7 11 29.63 1004 10 16 0.00 0.00
11:51 pm 23:51 Clear 76 24.4 17 -8.3 11 11 NNW 5 7 29.63 1003 10 16 0.00 0.00

Powered by AerisWeather